GW1410 Weather Reports


Display with metric or nautical units.
time (UTC)temp
F
wind
direction
speed
MPH
gust
MPH
rain 1hr
in
rain 24hr
in
rain mn
in
humidity
%
barometer
mb
20260906124607 86 252 2.0 9.0 0.00 0.00 0.00 66 1010.2
20260906123044 86 249 3.0 10.0 0.00 0.00 0.00 65 1010.1
20260906121546 87 360 2.0 8.0 0.00 0.00 0.00 64 1010.2
20260906120040 88 41 3.0 8.0 0.00 0.00 0.00 63 1010.0
20260906114528 89 34 3.0 8.0 0.00 0.00 0.00 61 1010.2
20260906113023 89 237 4.0 12.0 0.00 0.00 0.00 60 1010.1
20260906111504 88 286 2.0 12.0 0.00 0.00 0.00 62 1010.1
20260906110004 87 342 4.0 12.0 0.00 0.00 0.00 64 1010.4
20260906104546 87 301 3.0 9.0 0.00 0.00 0.00 62 1010.4
20260906103046 88 301 2.0 13.0 0.00 0.00 0.00 62 1010.4
20260906101527 89 317 2.0 9.0 0.00 0.00 0.00 60 1010.4
20260906100024 88 261 5.0 11.0 0.00 0.00 0.00 62 1010.5
20260906094506 88 246 4.0 11.0 0.00 0.00 0.00 62 1010.5
20260906093008 87 272 4.0 11.0 0.00 0.00 0.00 62 1010.5
20260906091543 87 277 3.0 7.0 0.00 0.00 0.00 61 1010.4
20260906090042 87 188 3.0 9.0 0.00 0.00 0.00 63 1010.4
20260906084523 87 272 3.0 8.0 0.00 0.00 0.00 63 1010.4
20260906083023 87 263 2.0 8.0 0.00 0.00 0.00 61 1010.4
20260906081503 86 306 4.0 7.0 0.00 0.00 0.00 60 1010.5
20260906080002 87 300 2.0 4.0 0.00 0.00 0.00 60 1010.6
20260906074546 86 128 1.0 4.0 0.00 0.00 0.00 61 1010.6
20260906073053 86 198 1.0 7.0 0.00 0.00 0.00 63 1010.6
20260906071527 86 205 2.0 6.0 0.00 0.00 0.00 65 1010.8
20260906070034 86 316 0.0 5.0 0.00 0.00 0.00 66 1010.9
20260906064502 85 221 1.0 7.0 0.00 0.00 0.00 69 1010.9
20260906063001 85 277 1.0 5.0 0.00 0.00 0.00 70 1010.8
20260906061552 83 199 2.0 7.0 0.00 0.00 0.00 73 1010.9
20260906060036 82 281 2.0 6.0 0.00 0.00 0.00 77 1010.9
20260906054521 81 192 0.0 3.0 0.00 0.00 0.00 79 1010.6
20260906053013 80 221 1.0 3.0 0.00 0.00 0.00 80 1010.4
20260906051555 79 246 0.0 2.0 0.00 0.00 0.00 81 1010.5
20260906050108 79 246 0.0 3.0 0.00 0.00 0.00 82 1010.4
20260906044536 78 262 0.0 1.0 0.00 0.00 0.00 82 1010.4
20260906043042 78 262 0.0 1.0 0.00 0.00 0.00 82 1010.4
20260906041514 78 262 0.0 1.0 0.00 0.00 0.00 82 1010.1
20260906040013 78 263 0.0 2.0 0.00 0.00 0.00 82 1010.1
20260906034554 78 263 0.0 1.0 0.00 0.00 0.00 82 1010.1
20260906033053 78 263 0.0 0.0 0.00 0.00 0.00 82 1010.1
20260906031533 78 263 0.0 1.0 0.00 0.00 0.00 81 1009.9
20260906030033 78 263 0.0 1.0 0.00 0.00 0.00 81 1009.9
20260906024514 78 263 0.0 3.0 0.00 0.00 0.00 81 1010.0
20260906023013 78 263 0.0 0.0 0.00 0.00 0.00 81 1009.9
20260906021557 78 263 0.0 1.0 0.00 0.00 0.00 80 1010.0
20260906020055 78 263 0.0 0.0 0.00 0.00 0.00 80 1009.9
20260906014554 78 263 0.0 2.0 0.00 0.00 0.00 80 1009.8
20260906013041 78 263 0.0 1.0 0.00 0.00 0.00 80 1009.7
20260906011550 78 263 0.0 2.0 0.00 0.00 0.00 80 1009.8
20260906010039 79 263 0.0 0.0 0.00 0.00 0.00 79 1009.8
20260906004539 79 263 0.0 0.0 0.00 0.00 0.00 79 1009.8
20260906003036 79 263 0.0 1.0 0.00 0.00 0.00 78 1009.9
20260906001535 79 263 0.0 2.0 0.00 0.00 0.00 79 1010.0
20260906000038 79 263 0.0 1.0 0.00 0.00 0.00 79 1010.0
20260905234601 79 263 1.0 3.0 0.00 0.00 0.00 79 1010.0
20260905233005 79 261 1.0 3.0 0.00 0.00 0.00 79 1010.0
20260905231508 79 251 1.0 3.0 0.00 0.00 0.00 78 1010.0
20260905230044 79 250 0.0 2.0 0.00 0.00 0.00 78 1009.9
20260905224552 79 251 0.0 0.0 0.00 0.00 0.00 78 1010.0
20260905223032 80 252 0.0 1.0 0.00 0.00 0.00 78 1010.0
20260905221523 80 252 0.0 3.0 0.00 0.00 0.00 78 1010.1
20260905220004 80 249 1.0 2.0 0.00 0.00 0.00 78 1010.3
20260905214503 80 248 0.0 2.0 0.00 0.00 0.00 78 1010.3
20260905213044 80 259 0.0 2.0 0.00 0.00 0.00 78 1010.5
20260905211542 80 278 0.0 2.0 0.00 0.00 0.00 77 1010.6
20260905210023 80 278 1.0 2.0 0.00 0.00 0.00 77 1010.7
20260905204522 80 278 0.0 0.0 0.00 0.00 0.00 77 1010.6
20260905203005 80 278 0.0 2.0 0.00 0.00 0.00 77 1010.7
20260905201504 81 278 0.0 3.0 0.00 0.00 0.00 76 1010.8
20260905200053 81 278 1.0 3.0 0.00 0.00 0.00 76 1010.7
20260905194546 81 278 1.0 3.0 0.00 0.00 0.00 76 1010.7
20260905193029 81 278 1.0 3.0 0.00 0.00 0.00 76 1010.7
20260905191534 81 278 0.0 4.0 0.00 0.00 0.00 76 1010.8
20260905190028 81 278 1.0 3.0 0.00 0.00 0.00 76 1010.8
20260905184509 81 278 1.0 3.0 0.00 0.00 0.00 75 1010.8
20260905183057 82 278 0.0 3.0 0.00 0.00 0.00 75 1010.9
20260905181557 82 278 1.0 3.0 0.00 0.00 0.00 75 1010.8
20260905180006 82 288 1.0 5.0 0.00 0.00 0.00 75 1010.8
20260905174554 82 286 1.0 4.0 0.00 0.00 0.00 74 1010.8
20260905173035 83 289 0.0 4.0 0.00 0.00 0.00 74 1010.7
20260905171554 83 169 0.0 3.0 0.00 0.00 0.00 74 1010.6
20260905170053 83 30 2.0 4.0 0.00 0.00 0.00 75 1010.4
20260905164606 83 47 1.0 4.0 0.00 0.00 0.00 75 1010.2
20260905163054 83 289 1.0 4.0 0.00 0.00 0.00 74 1010.1
20260905161548 83 329 4.0 5.0 0.00 0.00 0.00 73 1010.0
20260905160124 0 0.0 0.0 0.00 0.00 0.00 1009.9
20260905154549 83 117 2.0 6.0 0.00 0.00 0.00 74 1010.0
20260905153050 84 62 1.0 7.0 0.00 0.00 0.00 74 1009.9
20260905151553 84 296 2.0 5.0 0.00 0.00 0.00 72 1009.8
20260905150033 85 84 3.0 6.0 0.00 0.00 0.00 72 1009.8
20260905144550 85 134 2.0 8.0 0.00 0.00 0.00 71 1009.8
20260905143053 85 128 2.0 6.0 0.00 0.00 0.00 71 1009.8
20260905141601 85 152 2.0 6.0 0.00 0.00 0.00 71 1009.7
20260905140037 85 51 3.0 9.0 0.00 0.00 0.00 71 1009.7
20260905134555 86 117 3.0 7.0 0.00 0.00 0.00 71 1009.7
20260905133042 86 338 2.0 7.0 0.00 0.00 0.00 69 1009.7
20260905131606 86 328 3.0 7.0 0.00 0.00 0.00 70 1009.7
20260905130053 87 116 2.0 9.0 0.00 0.00 0.00 68 1009.7